User: anonymous   Login
Location: Unspecified
(0.0000°N, 0.0000°E)
Time: 20:00:36
(UTC+00:00)
Language:

COSMOS 2498 - Orbit

View from above orbital plane
View from above orbital plane
View from above satellite
View from above satellite

Ground track
Ground track

The orbit data is extracted from the following two-line orbital elements,

1 39763U 14028C   18171.70135876 -.00000009 +00000-0 -13351-3 0  9995
2 39763 082.4443 136.8768 0020182 313.8954 046.0463 12.42870765185032
Epoch (UTC): 20 June 2018 16:49:57
Eccentricity: 0.0020182
inclination: 82.4443°
perigee height: 1478 km
apogee height: 1510 km
right ascension of ascending node: 136.8768°
argument of perigee: 313.8954°
revolutions per day: 12.42870765
mean anomaly at epoch: 46.0463°
orbit number at epoch: 18503

The dashed part of the orbit path shows where the satellite is in the earth's shadow,  

DLR